This is the latest recevied weather packets stored in our database for station/object KQ4NAL. If no packets are shown the sender has not sent any weather packets the latest 10 day(s).
| Time | Temp. | Humidity | Pressure | Rain* | Wind** | Luminosity | Snow |
|---|---|---|---|---|---|---|---|
| 1777859449 | 11.67° C | 73% | 1014.8 hPa | 0 mm | - | 0 W/m² | - |
| 1777859146 | 11.67° C | 66% | 1014.6 hPa | 0 mm | - | 0 W/m² | - |
| 1777858843 | 11.67° C | 66% | 1014.7 hPa | 0 mm | - | 0 W/m² | - |
| 1777858541 | 12.22° C | 63% | 1014.3 hPa | 0 mm | - | 0 W/m² | - |
| 1777858238 | 12.22° C | 62% | 1014.3 hPa | 0 mm | - | 0 W/m² | - |
| 1777857935 | 12.22° C | 61% | 1014.2 hPa | 0 mm | - | 0 W/m² | - |
| 1777857633 | 12.78° C | 60% | 1014.2 hPa | 0 mm | - | 0 W/m² | - |
| 1777857329 | 13.33° C | 59% | 1014.4 hPa | 0 mm | - | 0 W/m² | - |
| 1777857026 | 13.33° C | 56% | 1014.7 hPa | 0 mm | - | 0 W/m² | - |
| 1777856721 | 13.33° C | 55% | 1014.8 hPa | 0 mm | - | 0 W/m² | - |
| 1777856417 | 13.89° C | 51% | 1014.8 hPa | 0 mm | - | 0 W/m² | - |
| 1777856114 | 13.33° C | 52% | 1014.8 hPa | 0 mm | - | 0 W/m² | - |
| 1777855812 | 13.89° C | 51% | 1014.8 hPa | 0 mm | - | 0 W/m² | - |
| 1777855510 | 13.89° C | 51% | 1014.8 hPa | 0 mm | - | 0 W/m² | - |
| 1777855206 | 14.44° C | 49% | 1014.6 hPa | 0 mm | - | 0 W/m² | - |
| 1777854902 | 14.44° C | 47% | 1014.8 hPa | 0 mm | - | 0 W/m² | - |
| 1777854599 | 14.44° C | 47% | 1014.8 hPa | 0 mm | - | 0 W/m² | - |
| 1777854296 | 14.44° C | 47% | 1014.5 hPa | 0 mm | - | 0 W/m² | - |
| 1777853994 | 14.44° C | 46% | 1014.3 hPa | 0 mm | - | 2 W/m² | - |
| 1777853691 | 14.44° C | 44% | 1014.4 hPa | 0 mm | - | 6 W/m² | - |
| 1777853387 | 14.44° C | 45% | 1014.3 hPa | 0 mm | - | 6 W/m² | - |
| 1777853084 | 15° C | 44% | 1014.5 hPa | 0 mm | - | 12 W/m² | - |
| 1777852782 | 15° C | 45% | 1014.2 hPa | 0 mm | - | 13 W/m² | - |
| 1777852479 | 15° C | 44% | 1014.2 hPa | 0 mm | - | 12 W/m² | - |
| 1777852177 | 15° C | 43% | 1014.3 hPa | 0 mm | - | 14 W/m² | - |
* Rain latest hour (hover to see other rain measurements)
** Current wind speed in m/s (hover to see current wind gust speed)